Flag for Luxembourg Weather past 2 weeks in Luxembourg, Luxembourg

Now
50 °F

Clear.


Feels Like: 50 °F
Forecast: 47 / 58 °F
Wind: 2 mph from North

Location: Luxembourg Airport

Current Time: Sep 22, 2014 at 1:21:50 AM

Latest Report: Sep 22, 2014 at 12:50 AM


Visibility: 10 mi

Pressure: 30.15 "Hg

Humidity: 94%

Dew point: 48 °F

Location of LuxembourgLocation

Historic Weather in Luxembourg — Graph

°F

Luxembourg temperature yesterday

Maximum temperature yesterday: 64 °F (at 12:20 PM)
Minimum temperature yesterday: 50 °F (at 11:50 PM)
Average temperature yesterday: 58 °F

Past Weeks' High & Low Weather Summary

 TemperatureHumidityPressure
High77 °F (Sep 18, 3:50 PM)100% (Sep 7, 6:20 AM)30.21 "Hg (Sep 7, 6:20 AM)
Low48 °F (Sep 12, 6:20 AM)43% (Sep 12, 4:20 PM)29.83 "Hg (Sep 18, 5:50 AM)
Average62 °F79%30.02 "Hg
* Reported Sep 6 11:20 PM — Sep 21 11:50 PM, Luxembourg, Weather by CustomWeather, © 2014

Note: Actual official high and low records may vary slightly from our data, if they occured in-between our weather recording intervals... More about our weather records

Advertising

Luxembourg weather history for previous 24 hours

 ConditionsComfort  
Time TempWeatherWind HumidityBarometerVisibility
11:50 PM
Sep 21
50 °FPassing clouds.5 mph94%30.15 "HgN/A
11:20 PM52 °FClear.8 mph94%30.15 "Hg10 mi
10:50 PM52 °FPassing clouds.8 mph94%30.12 "HgN/A
10:20 PM52 °FPassing clouds.5 mph94%30.12 "HgN/A
9:50 PM52 °FPassing clouds.6 mph94%30.12 "HgN/A
9:20 PM52 °FPassing clouds.7 mph100%30.12 "HgN/A
8:50 PM54 °FPassing clouds.6 mph94%30.12 "HgN/A
8:20 PM54 °FPassing clouds.5 mph94%30.09 "HgN/A
7:50 PM55 °FPassing clouds.5 mph88%30.09 "HgN/A
7:20 PM55 °FPartly sunny.7 mph94%30.07 "HgN/A
6:50 PM57 °FPartly sunny.7 mph88%30.07 "HgN/A
6:20 PM57 °FPartly sunny.9 mph88%30.07 "HgN/A
5:50 PM57 °FBroken clouds.5 mph94%30.07 "HgN/A
5:20 PM57 °FPartly sunny.7 mph88%30.04 "HgN/A
4:50 PM57 °FBroken clouds.7 mph94%30.04 "HgN/A
4:20 PM59 °FBroken clouds.12 mph88%30.04 "HgN/A
3:50 PM59 °FSprinkles. Broken clouds.7 mph94%30.04 "HgN/A
3:20 PM59 °FSprinkles. Broken clouds.12 mph88%30.01 "Hg4 mi
2:50 PM61 °FSprinkles. Broken clouds.8 mph94%30.01 "HgN/A
2:20 PM61 °FSprinkles. Broken clouds.7 mph94%30.01 "HgN/A
1:50 PM61 °FRain showers. Broken clouds.7 mph94%30.01 "Hg4 mi
1:20 PM64 °FRain showers. Scattered clouds.7 mph83%30.01 "Hg5 mi
12:50 PM64 °FScattered clouds.9 mph78%30.01 "Hg5 mi
12:20 PM64 °FScattered clouds.9 mph83%30.01 "Hg5 mi
11:50 AM63 °FScattered clouds.6 mph83%30.01 "Hg5 mi
11:20 AM63 °FPartly sunny.6 mph83%30.01 "Hg5 mi
10:50 AM63 °FBroken clouds.6 mph88%30.01 "Hg5 mi
10:20 AM63 °FPartly sunny.5 mph88%30.01 "Hg4 mi
9:50 AM59 °FScattered clouds.5 mph100%30.01 "Hg4 mi
9:20 AM59 °FScattered clouds.6 mph94%30.01 "Hg4 mi
8:50 AM57 °FPartly sunny.7 mph100%30.01 "Hg2 mi
8:20 AM57 °FFog.6 mph94%30.01 "Hg1 mi
7:50 AM57 °FPassing clouds.5 mph94%30.01 "Hg4 mi
7:20 AM57 °FClear.3 mph94%30.01 "Hg5 mi
6:50 AM57 °FPassing clouds.6 mph94%30.01 "HgN/A
6:20 AM57 °FPassing clouds.6 mph94%29.98 "HgN/A
5:50 AM57 °FPassing clouds.7 mph94%29.98 "HgN/A
4:50 AM57 °FClear.6 mph94%30.01 "HgN/A
4:20 AM57 °FCool.6 mph94%30.01 "Hg6 mi
3:50 AM57 °FCool.5 mph94%30.01 "Hg4 mi
3:20 AM57 °FCool.5 mph100%30.01 "Hg5 mi
2:50 AM57 °FCool.3 mph100%30.01 "HgN/A
2:20 AM59 °FCool.2 mph94%30.01 "Hg3 mi
1:50 AM59 °FPassing clouds.2 mph94%30.01 "HgN/A
1:20 AM59 °FPassing clouds.No wind94%30.01 "HgN/A
Weather by CustomWeather, © 2014

See weather overviewHow to use our weather pages